Погода в Старых Чукалах

Россия / Чувашская Республика     54°42′49″N   47°12′03″E
темп.,
°C
ветер,
м/с
пор.,
м/с
влажн.,
%
обл.,
%
осадки,
мм/ч
давл.,
гПа
погр.,
м
9 мая, вс
вс900:00+11ююв2279100 0.0 101121
03:00+10ююв348760 0.0 101170
06:00+13ююв4117791 0.0 1010309
09:00+16ююв61469100 0.0 1010635
12:00+19ю71258100 0.0 10101514
15:00+19ю7116397 0.8 1010903
18:00+18юв6126798 0.3 1010513
21:00+14ююв3582100 1.3 101293
10 мая, пн
пн1000:00+12зсз248997 0.0 101493
03:00+11ссз2492100 0.0 1015137
06:00+12св4990100 0.1 1016296
09:00+15ссв4677100 0.1 1018507
12:00+18ссв346499 0.0 1019949
15:00+20ссв5662100 0.1 10201153
18:00+15с6118597 2.1 1021402
21:00+12ссв5139287 2.8 1023333
11 мая, вт
вт1100:00+11св5129399 0.1 1024328
03:00+10св41095100 0.1 1024231
06:00+11св4994100 0.0 1025225
09:00+17всв5773100 0.0 1026414
12:00+20всв5659100 0.0 1027832
15:00+21всв565583 0.0 10261025
18:00+19всв476872 0.0 1027250
21:00+17всв4107029 0.0 1027236
12 мая, ср
ср1200:00+14в39735 0.0 1027136
03:00+13в3872100 0.0 1027147
06:00+15в37757 0.0 1028195
09:00+20вюв4758100 0.0 1028560
12:00+22вюв584661 0.0 10281576
15:00+22вюв684626 0.0 10272047
18:00+20юв3859100 0.0 1027258
21:00+16в346097 0.0 102764
13 мая, чт
чт1300:00+14вюв3566100 0.0 102776
03:00+14вюв356699 0.0 102784
06:00+15в3107157 0.0 1027269
09:00+19вюв59505 0.0 1027586
12:00+22юв6841100 0.0 10261230
15:00+23вюв6842100 0.0 10251582
18:00+20вюв41053100 0.0 1025367
21:00+16вюв386641 0.0 1025137